Meteo pe oră la Bol'shoe

Astăzi, 9 Mai, Duminică

Timp Temperatura Precipitaţii Vânt Presiune Umiditate
00:00 +7°C° 2 mm 2 m/s 739 mmHg 95%
01:00 +7°C° 1.4 mm 2 m/s 739 mmHg 96%
02:00 +6°C° 1.4 mm 2 m/s 738 mmHg 97%
03:00 +6°C° 0 mm 2 m/s 738 mmHg 98%
04:00 +6°C° 1.4 mm 2 m/s 738 mmHg 98%
05:00 +5°C° 1.4 mm 3 m/s 738 mmHg 98%
06:00 +5°C° 1.4 mm 3 m/s 738 mmHg 98%
07:00 +4°C° 0.5 mm 4 m/s 739 mmHg 97%
08:00 +3°C° 0.5 mm 4 m/s 740 mmHg 97%
09:00 +1°C° 0 mm 5 m/s 741 mmHg 96%
10:00 +2°C° 0 mm 5 m/s 741 mmHg 92%
11:00 +3°C° 0 mm 5 m/s 742 mmHg 88%
12:00 +3°C° 0 mm 5 m/s 743 mmHg 83%
13:00 +6°C° 0 mm 5 m/s 743 mmHg 74%
14:00 +7°C° 0 mm 5 m/s 744 mmHg 65%
15:00 +8°C° 0 mm 5 m/s 745 mmHg 56%
16:00 +8°C° 0 mm 5 m/s 745 mmHg 56%
17:00 +7°C° 0 mm 5 m/s 745 mmHg 56%
18:00 +7°C° 0 mm 4 m/s 746 mmHg 56%
19:00 +7°C° 0 mm 3 m/s 747 mmHg 61%
20:00 +4°C° 0 mm 3 m/s 747 mmHg 67%
21:00 +4°C° 0 mm 2 m/s 748 mmHg 72%
22:00 +3°C° 0 mm 2 m/s 749 mmHg 73%
23:00 +2°C° 0 mm 2 m/s 749 mmHg 74%

Mâine, 10 Mai, Luni

Timp Temperatura Precipitaţii Vânt Presiune Umiditate
00:00 +2°C° 0 mm 2 m/s 750 mmHg 75%
01:00 +1°C° 0 mm 2 m/s 751 mmHg 77%
02:00 +1°C° 0 mm 2 m/s 752 mmHg 79%
03:00 -1°C° 0 mm 2 m/s 752 mmHg 80%
04:00 +1°C° 0 mm 2 m/s 753 mmHg 78%
05:00 +2°C° 0 mm 2 m/s 753 mmHg 76%
06:00 +3°C° 0 mm 2 m/s 754 mmHg 75%
07:00 +6°C° 0 mm 1 m/s 754 mmHg 67%
08:00 +8°C° 0 mm 1 m/s 755 mmHg 59%
09:00 +10°C° 0 mm 1 m/s 755 mmHg 51%
10:00 +11°C° 0 mm 1 m/s 755 mmHg 47%
11:00 +12°C° 0 mm 1 m/s 755 mmHg 43%
12:00 +13°C° 0 mm 1 m/s 756 mmHg 39%
13:00 +13°C° 0 mm 1 m/s 756 mmHg 38%
14:00 +14°C° 0 mm 1 m/s 756 mmHg 38%
15:00 +14°C° 0 mm 1 m/s 756 mmHg 38%
16:00 +14°C° 0 mm 1 m/s 756 mmHg 41%
17:00 +14°C° 0 mm 1 m/s 756 mmHg 45%
18:00 +14°C° 0 mm 2 m/s 756 mmHg 49%
19:00 +12°C° 0 mm 2 m/s 756 mmHg 54%
20:00 +9°C° 0 mm 2 m/s 756 mmHg 59%
21:00 +7°C° 0 mm 2 m/s 757 mmHg 65%
22:00 +7°C° 0 mm 2 m/s 757 mmHg 64%
23:00 +7°C° 0 mm 2 m/s 757 mmHg 63%

Poimâine, 11 Mai, Marţi

Timp Temperatura Precipitaţii Vânt Presiune Umiditate
00:00 +6°C° 0 mm 2 m/s 757 mmHg 62%
01:00 +6°C° 0 mm 2 m/s 757 mmHg 62%
02:00 +5°C° 0 mm 2 m/s 757 mmHg 63%
03:00 +5°C° 0 mm 2 m/s 757 mmHg 64%
04:00 +6°C° 0 mm 2 m/s 758 mmHg 65%
05:00 +6°C° 0 mm 2 m/s 758 mmHg 65%
06:00 +7°C° 0 mm 2 m/s 758 mmHg 66%
07:00 +9°C° 0 mm 2 m/s 758 mmHg 62%
08:00 +12°C° 0 mm 2 m/s 758 mmHg 57%
09:00 +12°C° 0 mm 3 m/s 758 mmHg 53%
10:00 +15°C° 0 mm 2 m/s 758 mmHg 51%
11:00 +16°C° 0 mm 2 m/s 758 mmHg 49%
12:00 +18°C° 0 mm 2 m/s 758 mmHg 47%
13:00 +18°C° 0 mm 2 m/s 758 mmHg 47%
14:00 +19°C° 0 mm 2 m/s 758 mmHg 46%
15:00 +21°C° 0 mm 1 m/s 758 mmHg 46%
16:00 +20°C° 0 mm 1 m/s 758 mmHg 50%
17:00 +20°C° 0 mm 1 m/s 758 mmHg 53%
18:00 +20°C° 0 mm 1 m/s 758 mmHg 57%
19:00 +18°C° 0 mm 1 m/s 757 mmHg 63%
20:00 +15°C° 0 mm 1 m/s 757 mmHg 70%
21:00 +12°C° 0 mm 0 m/s 757 mmHg 76%
22:00 +12°C° 0 mm 1 m/s 758 mmHg 78%
23:00 +12°C° 0 mm 1 m/s 758 mmHg 80%

12 Mai, Miercuri

Timp Temperatura Precipitaţii Vânt Presiune Umiditate
00:00 +10°C° 0 mm 2 m/s 758 mmHg 82%
01:00 +11°C° 0 mm 1 m/s 758 mmHg 82%
02:00 +10°C° 0 mm 1 m/s 758 mmHg 82%
03:00 +10°C° 0 mm 1 m/s 758 mmHg 82%
04:00 +10°C° 0 mm 1 m/s 758 mmHg 80%
05:00 +11°C° 0 mm 1 m/s 758 mmHg 79%
06:00 +11°C° 0 mm 1 m/s 758 mmHg 77%
07:00 +13°C° 0 mm 2 m/s 758 mmHg 70%
08:00 +15°C° 0 mm 2 m/s 758 mmHg 62%
09:00 +17°C° 0 mm 2 m/s 758 mmHg 55%
10:00 +18°C° 0 mm 2 m/s 758 mmHg 50%
11:00 +19°C° 0 mm 2 m/s 757 mmHg 46%
12:00 +21°C° 0 mm 3 m/s 757 mmHg 42%
13:00 +21°C° 0 mm 3 m/s 757 mmHg 43%
14:00 +22°C° 0 mm 3 m/s 757 mmHg 44%
15:00 +24°C° 0 mm 3 m/s 756 mmHg 44%
16:00 +23°C° 0 mm 2 m/s 756 mmHg 50%
17:00 +23°C° 0 mm 2 m/s 756 mmHg 55%
18:00 +21°C° 0 mm 2 m/s 756 mmHg 60%
19:00 +20°C° 0 mm 2 m/s 756 mmHg 67%
20:00 +18°C° 0 mm 2 m/s 755 mmHg 75%
21:00 +16°C° 0 mm 2 m/s 755 mmHg 82%
22:00 +15°C° 0 mm 2 m/s 755 mmHg 84%
23:00 +15°C° 0 mm 2 m/s 755 mmHg 86%

13 Mai, Joi

Timp Temperatura Precipitaţii Vânt Presiune Umiditate
00:00 +14°C° 0 mm 2 m/s 755 mmHg 87%
01:00 +14°C° 0 mm 2 m/s 755 mmHg 86%
02:00 +14°C° 0 mm 2 m/s 755 mmHg 85%
03:00 +15°C° 0 mm 2 m/s 754 mmHg 84%
04:00 +15°C° 0 mm 2 m/s 754 mmHg 84%
05:00 +14°C° 0 mm 3 m/s 754 mmHg 85%
06:00 +16°C° 0 mm 3 m/s 754 mmHg 85%
07:00 +16°C° 0 mm 3 m/s 754 mmHg 82%
08:00 +17°C° 0 mm 3 m/s 754 mmHg 78%
09:00 +18°C° 0 mm 3 m/s 754 mmHg 74%
10:00 +19°C° 0 mm 4 m/s 754 mmHg 69%
11:00 +19°C° 0 mm 4 m/s 754 mmHg 63%
12:00 +20°C° 0 mm 4 m/s 754 mmHg 58%
13:00 +21°C° 0 mm 4 m/s 753 mmHg 56%
14:00 +21°C° 0 mm 5 m/s 753 mmHg 55%
15:00 +22°C° 0 mm 5 m/s 753 mmHg 53%
16:00 +21°C° 0 mm 4 m/s 752 mmHg 55%
17:00 +21°C° 0 mm 4 m/s 752 mmHg 56%
18:00 +21°C° 0 mm 4 m/s 752 mmHg 58%
19:00 +19°C° 0 mm 3 m/s 752 mmHg 66%
20:00 +18°C° 0 mm 3 m/s 752 mmHg 74%
21:00 +16°C° 0 mm 2 m/s 751 mmHg 82%
22:00 +16°C° 0 mm 2 m/s 751 mmHg 82%
23:00 +15°C° 0 mm 2 m/s 751 mmHg 82%

14 Mai, Vineri

Timp Temperatura Precipitaţii Vânt Presiune Umiditate
00:00 +15°C° 0 mm 2 m/s 751 mmHg 83%
01:00 +15°C° 0 mm 2 m/s 751 mmHg 84%
02:00 +15°C° 0 mm 2 m/s 751 mmHg 85%
03:00 +15°C° 0 mm 2 m/s 750 mmHg 87%
04:00 +15°C° 0 mm 2 m/s 750 mmHg 88%
05:00 +15°C° 0 mm 2 m/s 750 mmHg 89%
06:00 +15°C° 0 mm 2 m/s 750 mmHg 90%
07:00 +16°C° 0 mm 3 m/s 750 mmHg 88%
08:00 +17°C° 0 mm 3 m/s 750 mmHg 85%
09:00 +18°C° 0 mm 3 m/s 749 mmHg 83%
10:00 +19°C° 0.1 mm 4 m/s 749 mmHg 78%
11:00 +20°C° 0.1 mm 4 m/s 749 mmHg 72%
12:00 +22°C° 0.1 mm 4 m/s 749 mmHg 67%
13:00 +22°C° 0.6 mm 4 m/s 749 mmHg 67%
14:00 +22°C° 0.6 mm 4 m/s 748 mmHg 67%
15:00 +22°C° 0.6 mm 4 m/s 748 mmHg 67%
16:00 +22°C° 0.1 mm 4 m/s 748 mmHg 67%
17:00 +22°C° 0.1 mm 4 m/s 747 mmHg 67%
18:00 +22°C° 0.1 mm 4 m/s 747 mmHg 67%
19:00 +20°C° 0 mm 3 m/s 747 mmHg 73%
20:00 +19°C° 0 mm 3 m/s 746 mmHg 79%
21:00 +17°C° 0 mm 3 m/s 746 mmHg 85%
22:00 +17°C° 0.2 mm 3 m/s 746 mmHg 87%
23:00 +17°C° 0.2 mm 3 m/s 746 mmHg 89%
Arată mai mult

Formular de consimțământ

Meteoprog și furnizorii noștri de servicii pot stoca și accesa date personale, precum cookies, identificatori de dispozitiv sau alte tehnologii similare pe dispozitivul dumneavoastră și procesa astfel de date pentru a personaliza conținutul și reclamele, dar și pentru a oferi caracteristici de social media și pentru a analiza traficul.

  • Stocarea și/sau accesarea informațiilor pe dispozitivul dumneavoastră

    Cookies, identificatori de dispozitiv sau alte informații pot fi stocate sau accesate pe dispozitiv în scopurile indicate mai sus.

  • Reclame și conținut personalizat, evaluarea reclamelor și a conținutului, informații despre audiențe și dezvoltarea produselor

    Reclamele și conținutul pot fi personalizate pe baza unui profil. Pot fi adăugate date suplimentare pentru a personaliza mai bine reclamele și conținutul. Performanța reclamelor și conținutului poate fi măsurată. Pot fi obținute informații despre utilizatorii care au văzut reclamele și conținutul. Aceste date pot fi utilizate pentru a dezvolta sau îmbunătăți experiența utilizatorilor, sistemele și software-ul.

Dând clic pe ‘Sunt de acord’, permiteți utilizarea cookie-urilor menționate, a identificatorilor de dispozitiv, balizelor web sau altor tehnologii similare. Setările pot fi modificate din browser-ul dispozitivului dumneavoastră.

În anumite scopuri, interesele legitime pot prima asupra consimțământului. Puteți citi mai multe informații în acest sens în Politica privind Confidențialitatea Datelor și Cookie.